Погода в Максимовке

Россия / Приморский край     46°05′17″N   137°53′29″E
темп.,
°C
ветер,
м/с
пор.,
м/с
влажн.,
%
обл.,
%
осадки,
мм/ч
давл.,
гПа
погр.,
м
24 июля, сб
сб2401:00+19ююз349976 0.0 100837
04:00+19ююз239879 0.0 100827
07:00+19юз119998 0.9 100921
10:00+19ю339792 0.9 100969
13:00+19ююз569691 0.1 1009105
16:00+20ююз689674 0.1 1008120
19:00+19ююз689877 0.0 100896
22:00+19ююз569976 0.0 100972
25 июля, вс
вс2501:00+19ююз5710092 0.0 100873
04:00+18ююз5710087 0.0 100876
07:00+18ююз569993 0.0 100877
10:00+19ююз7897100 0.0 1009130
13:00+19ююз91295100 0.0 1008168
16:00+20ююз10159451 0.0 1007189
19:00+19ююз81296100 0.0 1007130
22:00+19ююз579898 0.1 100869
26 июля, пн
пн2601:00+19ююз6799100 0.0 100878
04:00+18ююз5710095 0.0 100791
07:00+18ююз579985 0.0 1007102
10:00+19ююз7896100 0.0 1007131
13:00+19ююз9129696 0.1 1006165
16:00+19ююз9139693 0.1 1005170
19:00+19ююз7109898 0.0 1005123
22:00+19ююз789999 0.1 1005123
27 июля, вт
вт2701:00+18ююз5699100 0.1 100581
04:00+18ююз459984 0.1 100473
07:00+18ююз339984 0.1 100556
10:00+19ю3397100 0.1 100466
13:00+19ю449699 0.1 1004134
16:00+19ю4496100 0.2 1003119
19:00+19ю229887 0.1 100271
22:00+18юз229990 0.1 100453
28 июля, ср
ср2801:00+19ссв119511 0.0 100311
04:00+18ссв339860 0.0 100341
07:00+18св339646 0.0 100353
10:00+19всв228931 0.0 100368
13:00+19в238270 0.0 100278
16:00+19юв119094 0.0 100185
19:00+19юв229233 0.0 100063
22:00+19в119278 0.0 100111